Woodward, OK

1:00 AM CDT on March 25, 2017 (GMT -0500)
West Woodward

Weather History for KWWR - July, 2013

Change the Weather History Date:

Wednesday, July 10, 2013

  Actual Average (KGAG) Record (KGAG)
Temperature  
Mean Temperature 90 °F -  
Max Temperature 104 °F 95 °F 107 °F (1970)
Min Temperature 77 °F 69 °F 53 °F (1959)
Cooling Degree Days 26    
Growing Degree Days 40 (Base 50)    
Moisture  
Dew Point 60 °F    
Average Humidity 40    
Maximum Humidity 69    
Minimum Humidity 20    
Precipitation  
Precipitation 0.03 in - - ()
Sea Level Pressure  
Sea Level Pressure 30.04 in    
Wind  
Wind Speed 11 mph (SSW)    
Max Wind Speed 17 mph    
Max Gust Speed 22 mph    
Visibility 10 miles    
Events Rain , Thunderstorm    
Averages and records for this station are not official NWS values.
T = Trace of Precipitation, MM = Missing Value Source: NWS Daily Summary

Daily Weather History Graph

Daily Weather History Graph

Search for Another Location

Airport or City:

Trip Planner

Search our weather history database for the weather conditions in past years. The results will help you decide how hot, cold, wet, or windy it might be!

Date:

Astronomy

Jul. 10, 2013 Rise Set
Actual Time 6:28 AM CDT 8:58 PM CDT
Civil Twilight 5:58 AM CDT 9:27 PM CDT
Nautical Twilight 5:21 AM CDT 10:04 PM CDT
Astronomical Twilight 4:40 AM CDT 10:45 PM CDT
Moon 8:46 AM CDT (7/10) 10:14 PM CDT (7/10)
Length of Visible Light 15h 29m
Length of Day
14h 29m
Waxing Crescent, 5% of the Moon is Illuminated
Jul 10
Waxing Crescent
Jul 15
First Quarter
Jul 22
Full
Jul 29
Last Quarter
Aug 6
New

Hourly Weather History & Observations

Time (CDT) Temp. Heat Index Dew Point Humidity Pressure Visibility Wind Dir Wind Speed Gust Speed Precip Events Conditions
12:15 AM 89.6 °F 87.3 °F 53.6 °F 29% 30.03 in 10.0 mi South 13.8 mph - N/A   Clear
12:35 AM 89.6 °F 87.3 °F 53.6 °F 29% 30.03 in 10.0 mi South 13.8 mph - N/A   Clear
12:55 AM 89.6 °F 87.3 °F 53.6 °F 29% 30.03 in 10.0 mi South 12.7 mph - N/A   Clear
1:15 AM 87.8 °F 85.7 °F 53.6 °F 31% 30.03 in 10.0 mi South 13.8 mph - N/A   Clear
1:35 AM 87.8 °F 85.7 °F 53.6 °F 31% 30.02 in 10.0 mi SSW 13.8 mph - N/A   Clear
1:55 AM 87.8 °F 85.7 °F 53.6 °F 31% 30.03 in 10.0 mi SSW 13.8 mph - N/A   Scattered Clouds
2:15 AM 87.8 °F 86.1 °F 55.4 °F 33% 30.03 in 10.0 mi South 15.0 mph - N/A   Mostly Cloudy
2:55 AM 86.0 °F 84.5 °F 55.4 °F 35% 30.08 in 10.0 mi NNE 15.0 mph 20.7 mph N/A Thunderstorm Thunderstorm
3:15 AM 86.0 °F 86.1 °F 60.8 °F 43% 30.11 in 10.0 mi NNE 10.4 mph 19.6 mph N/A Rain , Thunderstorm Light Thunderstorms and Rain
3:35 AM 77.0 °F - 66.2 °F 69% 30.09 in 7.0 mi WSW 10.4 mph - 0.02 in Rain , Thunderstorm Thunderstorms and Rain
3:55 AM 77.0 °F - 66.2 °F 69% 30.07 in 10.0 mi SW 12.7 mph - 0.03 in Rain , Thunderstorm Light Thunderstorms and Rain
4:15 AM 77.0 °F - 66.2 °F 69% 30.08 in 10.0 mi SSW 13.8 mph - N/A Thunderstorm Unknown
4:35 AM 78.8 °F - 64.4 °F 61% 30.08 in 10.0 mi South 15.0 mph 21.9 mph N/A Thunderstorm Thunderstorm
4:55 AM 78.8 °F - 64.4 °F 61% 30.07 in 10.0 mi South 16.1 mph - N/A Thunderstorm Thunderstorm
5:15 AM 77.0 °F - 66.2 °F 69% 30.06 in 10.0 mi South 9.2 mph - N/A   Clear
5:35 AM 78.8 °F - 64.4 °F 61% 30.05 in 10.0 mi South 11.5 mph - N/A   Clear
5:55 AM 78.8 °F - 64.4 °F 61% 30.06 in 10.0 mi South 9.2 mph - N/A   Clear
6:15 AM 78.8 °F - 64.4 °F 61% 30.05 in 10.0 mi South 9.2 mph - N/A   Clear
6:35 AM 80.6 °F 82.3 °F 64.4 °F 58% 30.05 in 10.0 mi SSW 10.4 mph - N/A   Clear
6:55 AM 80.6 °F 81.8 °F 62.6 °F 54% 30.05 in 10.0 mi SSW 9.2 mph - N/A   Clear
7:15 AM 80.6 °F 81.8 °F 62.6 °F 54% 30.05 in 10.0 mi SSW 10.4 mph - N/A   Clear
7:35 AM 80.6 °F 82.3 °F 64.4 °F 58% 30.04 in 10.0 mi SSW 10.4 mph - N/A   Clear
7:55 AM 80.6 °F 82.3 °F 64.4 °F 58% 30.04 in 10.0 mi SW 9.2 mph - N/A   Clear
8:15 AM 80.6 °F 82.3 °F 64.4 °F 58% 30.04 in 10.0 mi SW 10.4 mph - N/A   Clear
8:35 AM 82.4 °F 83.9 °F 64.4 °F 54% 30.05 in 10.0 mi SW 10.4 mph - N/A   Clear
8:55 AM 82.4 °F 83.9 °F 64.4 °F 54% 30.06 in 10.0 mi SW 10.4 mph - N/A   Clear
9:15 AM 84.2 °F 85.6 °F 64.4 °F 51% 30.07 in 10.0 mi SW 9.2 mph - N/A   Clear
9:35 AM 87.8 °F 88.5 °F 62.6 °F 43% 30.10 in 10.0 mi North 11.5 mph - N/A   Clear
9:55 AM 86.0 °F 86.6 °F 62.6 °F 45% 30.09 in 10.0 mi WSW 3.5 mph - N/A   Clear
10:15 AM 86.0 °F 87.3 °F 64.4 °F 48% 30.08 in 10.0 mi SW 6.9 mph - N/A   Clear
10:35 AM 87.8 °F 89.4 °F 64.4 °F 46% 30.08 in 10.0 mi WSW 10.4 mph - N/A   Clear
10:55 AM 89.6 °F 89.5 °F 60.8 °F 38% 30.09 in 10.0 mi WSW 12.7 mph - N/A   Clear
11:15 AM 91.4 °F 90.7 °F 59.0 °F 34% 30.09 in 10.0 mi WSW 11.5 mph - N/A   Clear
11:35 AM 91.4 °F 91.4 °F 60.8 °F 36% 30.08 in 10.0 mi WSW 12.7 mph - N/A   Clear
11:55 AM 95.0 °F 95.2 °F 60.8 °F 32% 30.08 in 10.0 mi WSW 15.0 mph - N/A   Clear
12:15 PM 95.0 °F 94.4 °F 59.0 °F 30% 30.08 in 10.0 mi WSW 15.0 mph 18.4 mph N/A   Clear
12:35 PM 96.8 °F 96.2 °F 59.0 °F 28% 30.07 in 10.0 mi SW 10.4 mph 17.3 mph N/A   Clear
12:55 PM 96.8 °F 96.2 °F 59.0 °F 28% 30.07 in 10.0 mi West 8.1 mph - N/A   Clear
1:15 PM 98.6 °F 98.5 °F 59.0 °F 27% 30.07 in 10.0 mi WSW 5.8 mph - N/A   Clear
1:35 PM 98.6 °F 97.6 °F 57.2 °F 25% 30.07 in 10.0 mi WSW 5.8 mph - N/A   Clear
1:55 PM 98.6 °F 97.6 °F 57.2 °F 25% 30.06 in 10.0 mi SW 3.5 mph - N/A   Clear
2:15 PM 100.4 °F 99.7 °F 57.2 °F 24% 30.05 in 10.0 mi Calm Calm - N/A   Clear
2:35 PM 98.6 °F 97.2 °F 55.4 °F 24% 30.04 in 10.0 mi Calm Calm - N/A   Clear
2:55 PM 102.2 °F 100.9 °F 55.4 °F 21% 30.03 in 10.0 mi South 6.9 mph - N/A   Clear
3:15 PM 100.4 °F 98.8 °F 55.4 °F 22% 30.03 in 10.0 mi WSW 6.9 mph - N/A   Scattered Clouds
3:35 PM 100.4 °F 98.8 °F 55.4 °F 22% 30.02 in 10.0 mi SSE 10.4 mph - N/A   Scattered Clouds
3:55 PM 100.4 °F 98.8 °F 55.4 °F 22% 30.02 in 10.0 mi SE 8.1 mph - N/A   Mostly Cloudy
4:15 PM 102.2 °F 100.9 °F 55.4 °F 21% 30.01 in 10.0 mi South 9.2 mph - N/A   Mostly Cloudy
4:35 PM 104.0 °F 102.9 °F 55.4 °F 20% 30.00 in 10.0 mi SSE 9.2 mph - N/A   Mostly Cloudy
4:55 PM 102.2 °F 100.9 °F 55.4 °F 21% 30.00 in 10.0 mi SSW 15.0 mph - N/A   Mostly Cloudy
5:15 PM 102.2 °F 100.4 °F 53.6 °F 20% 29.99 in 10.0 mi SW 8.1 mph 16.1 mph N/A   Scattered Clouds
5:35 PM 102.2 °F 100.4 °F 53.6 °F 20% 29.97 in 10.0 mi South 9.2 mph - N/A   Clear
5:55 PM 102.2 °F 101.4 °F 57.2 °F 22% 29.97 in 10.0 mi SSW 15.0 mph 18.4 mph N/A   Clear
6:15 PM 98.6 °F 97.6 °F 57.2 °F 25% 29.97 in 10.0 mi South 12.7 mph - N/A   Clear
6:35 PM 95.0 °F 93.7 °F 57.2 °F 28% 29.97 in 10.0 mi SSW 10.4 mph - N/A   Clear
6:55 PM 95.0 °F 93.7 °F 57.2 °F 28% 29.97 in 10.0 mi South 11.5 mph - N/A   Clear
7:15 PM 93.2 °F 92.6 °F 59.0 °F 32% 29.97 in 10.0 mi South 11.5 mph - N/A   Clear
7:35 PM 91.4 °F 90.7 °F 59.0 °F 34% 29.98 in 10.0 mi South 9.2 mph - N/A   Clear
7:55 PM 91.4 °F 90.7 °F 59.0 °F 34% 30.00 in 10.0 mi East 17.3 mph 20.7 mph N/A   Mostly Cloudy
8:15 PM 87.8 °F 87.1 °F 59.0 °F 38% 30.00 in 10.0 mi ESE 13.8 mph 21.9 mph N/A   Scattered Clouds
8:35 PM 87.8 °F 87.1 °F 59.0 °F 38% 30.00 in 10.0 mi ESE 12.7 mph - N/A   Clear
8:55 PM 86.0 °F 86.1 °F 60.8 °F 43% 30.00 in 10.0 mi SE 9.2 mph - N/A   Clear
9:15 PM 86.0 °F 86.1 °F 60.8 °F 43% 30.00 in 10.0 mi ESE 9.2 mph - N/A   Clear
9:35 PM 86.0 °F 86.1 °F 60.8 °F 43% 30.00 in 10.0 mi ESE 8.1 mph - N/A   Clear
9:55 PM 86.0 °F 86.6 °F 62.6 °F 45% 30.02 in 10.0 mi ESE 6.9 mph - N/A   Clear
10:15 PM 84.2 °F 85.0 °F 62.6 °F 48% 30.02 in 10.0 mi ESE 6.9 mph - N/A   Clear
10:35 PM 82.4 °F 83.4 °F 62.6 °F 51% 30.02 in 10.0 mi SE 5.8 mph - N/A   Clear
10:55 PM 82.4 °F 83.4 °F 62.6 °F 51% 30.02 in 10.0 mi SE 9.2 mph - N/A   Scattered Clouds
11:15 PM 84.2 °F 85.0 °F 62.6 °F 48% 30.03 in 10.0 mi SSE 10.4 mph - N/A   Scattered Clouds
11:35 PM 82.4 °F 83.4 °F 62.6 °F 51% 30.03 in 10.0 mi SSE 9.2 mph - N/A   Clear
11:55 PM 84.2 °F 85.0 °F 62.6 °F 48% 30.03 in 10.0 mi SSE 6.9 mph - N/A   Clear